Location: Unspecified
(49.2170°N, 0.0000°E)
Time: 13:19:52
(UTC+00:00)

S-56A Canister/Altair - Pass Details

Date: 23 June 2021
Orbit: 631 x 2501 km, 38.9° (Epoch: 30 July)

Event Time Altitude Azimuth Distance (km) Brightness Sun altitude
Exits shadow 02:53:53 - 191° (S) 2,391 9.5 -7.9°
Reaches altitude 10° 02:55:40 10° 172° (S) 2,047 9.3 -7.7°
Maximum altitude 02:56:55 11° 156° (SSE) 1,955 9.4 -7.6°
Drops below altitude 10° 02:58:08 10° 140° (SE) 2,007 9.6 -7.5°
Sets 03:02:13 0° 103° (ESE) 2,953 11.0 -7.1°
